Location: Paris
(48.6709°N, 2.3750°E)
Time: 14:38:02
(UTC+02:00)

AO-92 - Visible Passes

Search period start: 28 June 2022 00:00
Search period end: 08 July 2022 00:00
Orbit: 472 x 481 km, 97.4° (Epoch: 28 June)

Date Brightness Start Highest point End Pass type
(mag) Time Alt. Az. Time Alt. Az. Time Alt. Az.
28 Jun ? 01:07:44 10° WSW 01:08:45 11° W 01:09:47 10° WNW visible
28 Jun ? 23:05:39 12° SE 23:08:30 30° ENE 23:11:39 10° N visible
29 Jun ? 00:39:51 14° SW 00:41:49 21° W 00:44:38 10° NW visible
29 Jun ? 22:39:44 10° ESE 22:42:01 16° ENE 22:44:19 10° NNE visible
30 Jun ? 00:12:55 20° SSW 00:15:01 42° W 00:18:26 10° NNW visible
30 Jun ? 23:45:57 21° SSE 23:48:16 89° ENE 23:51:51 10° NNW visible
01 Jul ? 23:19:00 15° SE 23:21:37 42° ENE 23:25:01 10° N visible
02 Jul ? 00:53:12 11° SW 00:55:08 16° W 00:57:21 10° NW visible
02 Jul ? 22:52:17 10° ESE 22:55:04 22° ENE 22:57:51 10° NNE visible
03 Jul ? 00:26:14 18° SSW 00:28:13 30° W 00:31:25 10° NNW visible
03 Jul ? 23:59:15 22° S 00:01:24 63° W 00:04:57 10° NNW visible
04 Jul ? 23:32:16 19° SSE 23:34:40 60° ENE 23:38:13 10° N visible
05 Jul ? 01:07:13 10° WSW 01:08:21 11° W 01:09:30 10° WNW visible
05 Jul ? 23:05:17 12° SE 23:08:02 29° ENE 23:11:11 10° N visible
06 Jul ? 00:39:29 15° SW 00:41:22 22° W 00:44:12 10° NW visible
06 Jul ? 22:39:14 10° ESE 22:41:29 16° ENE 22:43:46 10° NNE visible
07 Jul ? 00:12:28 21° SSW 00:14:28 43° W 00:17:54 10° NNW visible
07 Jul ? 23:45:28 22° SSE 23:47:40 87° ENE 23:51:15 10° NNW visible
